Location: Newark
(45.6000°N, 12.8833°E)
Time: 19:25:14
(UTC+00:00)

OTV 5 (USA 277) - Visible Passes

Search period start: 23 October 2019 00:00
Search period end: 02 November 2019 00:00
Orbit: 310 x 324 km, 54.5° (Epoch: 17 October)

Date Brightness Start Highest point End Pass type
(mag) Time Alt. Az. Time Alt. Az. Time Alt. Az.
28 Oct ? 17:06:17 10° SSE 17:07:46 14° SE 17:07:46 14° SE visible
29 Oct ? 17:19:39 10° SSW 17:22:09 33° SE 17:22:16 33° SE visible
30 Oct ? 17:33:53 10° SW 17:36:38 89° NNW 17:36:39 87° NE visible
31 Oct ? 17:48:38 10° W 17:50:56 36° NW 17:50:56 36° NW visible
01 Nov ? 16:28:47 10° SW 16:31:28 55° SE 16:34:10 10° ENE visible
01 Nov ? 18:03:43 10° WNW 18:05:08 19° NW 18:05:08 19° NW visible
